User: anonymous   Login
Location: ????????
(55.0808°N, 38.5463°E)
Time: 15:57:59
(UTC+00:00)
Language:

H-2A R/B - Orbit

View from above orbital plane
View from above orbital plane
View from above satellite
View from above satellite

Ground track
Ground track

The orbit data is extracted from the following two-line orbital elements,

1 27601U 02056E   24173.89642675  .00000296  00000-0  12015-3 0  9992
2 27601  98.2299 150.7324 0070183 226.7664 153.2222 14.32839330124461
Epoch (UTC): 21 June 2024 21:30:51
Eccentricity: 0.0070183
inclination: 98.2299°
perigee height: 732 km
apogee height: 832 km
right ascension of ascending node: 150.7324°
argument of perigee: 226.7664°
revolutions per day: 14.32839330
mean anomaly at epoch: 153.2222°
orbit number at epoch: 12446

The dashed part of the orbit path shows where the satellite is in the earth's shadow,  

DLR